This is the latest recevied weather packets stored in our database for station/object KB1FPD. If no packets are shown the sender has not sent any weather packets the latest 10 day(s).
| Time | Temp. | Humidity | Pressure | Rain* | Wind** | Luminosity | Snow |
|---|---|---|---|---|---|---|---|
| 1777559435 | 13.33° C | 73% | 1009.9 hPa | 0 mm | - | - | - |
| 1777559137 | 13.33° C | 78% | 1009.7 hPa | 0 mm | - | - | - |
| 1777558834 | 12.78° C | 77% | 1009.7 hPa | 0 mm | - | - | - |
| 1777558537 | 13.33° C | 75% | 1009.6 hPa | 0 mm | - | - | - |
| 1777558237 | 13.33° C | 76% | 1009.5 hPa | 0 mm | - | - | - |
| 1777557935 | 13.33° C | 76% | 1009.6 hPa | 0 mm | - | - | - |
| 1777557634 | 13.33° C | 77% | 1009.5 hPa | 0 mm | - | - | - |
| 1777557335 | 13.33° C | 80% | 1009.6 hPa | 0 mm | - | - | - |
| 1777557034 | 12.78° C | 84% | 1009.6 hPa | 0 mm | - | - | - |
| 1777556735 | 12.78° C | 85% | 1009.4 hPa | 0 mm | - | - | - |
| 1777556437 | 12.22° C | 82% | 1009.6 hPa | 0 mm | - | - | - |
| 1777556134 | 12.22° C | 84% | 1009.4 hPa | 0 mm | - | - | - |
| 1777555834 | 11.67° C | 83% | 1009.4 hPa | 0 mm | - | - | - |
| 1777555535 | 11.67° C | 86% | 1009.5 hPa | 0 mm | - | - | - |
| 1777555235 | 11.67° C | 86% | 1009.5 hPa | 0 mm | - | - | - |
| 1777554934 | 11.67° C | 87% | 1009.4 hPa | 0 mm | - | - | - |
| 1777554634 | 11.11° C | 88% | 1009.3 hPa | 0 mm | - | - | - |
| 1777554334 | 11.11° C | 86% | 1009.1 hPa | 0 mm | - | - | - |
| 1777554035 | 11.11° C | 86% | 1009.2 hPa | 0 mm | - | - | - |
| 1777553734 | 11.11° C | 88% | 1009.2 hPa | 0 mm | - | - | - |
| 1777553433 | 10.56° C | 89% | 1009 hPa | 0 mm | - | - | - |
| 1777553135 | 10.56° C | 90% | 1009.2 hPa | 0 mm | - | - | - |
| 1777552834 | 10.56° C | 90% | 1009.1 hPa | 0 mm | - | - | - |
| 1777552534 | 10.56° C | 90% | 1009.1 hPa | 0 mm | - | - | - |
| 1777552235 | 10° C | 90% | 1009.2 hPa | 0 mm | - | - | - |
* Rain latest hour (hover to see other rain measurements)
** Current wind speed in m/s (hover to see current wind gust speed)